International Virtual Aviation Organisation

Russian Federation and Kazakhstan MCD

 

Карточка аэропорта UOOO

Внимание!
Информация на этой странице в стадии наполнения.
Если вы не увидели какой-то информации, или заметили неточность - пожалуйста сообщите нам!
Спасибо!
Команда RU-STAFF
Название аэропортаАлыкель
Название аэропорта (англ.)Alykel
Превышение574 ft. (175 m.)
Координаты69°19.02', 87°19.02'
Высота перехода1200m
Эшелон переходаQFE>744:FL60;744>QFE>717:FL70;717>QFE:FL80
Коды ответчика5401-5427
Зона ОрВДКрасноярск РПИ (UNKL)
Данные METARUOOO 041100Z 19011MPS 0800 0750NE R19/1800N SN BLSN OVC022 M11/M12 Q1014 R19/420340 NOSIG RMK QFE744/0993
Проноз погоды (TAF)UOOO 041038Z 0410/0509 21012G17MPS 1000 SN BLSN BKN015 TEMPO 0410/0415 0500 +SN BLSN VV005 BECMG 0415/0417 0400 BLSN VV003 BECMG 0506/0508 1200 SN BLSN BKN011
NOTAMshow/hide NOTAM
AWOS   TABLE

Информация о ВПП

ВПП Длина ВПП (м.) Покрытие Курс ВПП Частота ILS
013430Бетон13109.5
193430Бетон193110.3

Диспетчерские позиции

Позывной Наименование органа УВД Частота
UOOO_APPНорильск - Круг120.400
UOOO_GNDНорильск - Руление121.700
UOOO_TWRНорильск - Старт118.300



Спутниковое изображение